Radiation Dose at Monitoring Post of Fukushima Daini Nuclear Power Station
Date,Time,MP-1(microSv/h),MP-2(microSv/h),MP-3(microSv/h),MP-4(microSv/h),MP-5(microSv/h),MP-6(microSv/h),MP-7(microSv/h),Wind Direction,Wind Velocity(m/s),Rain
2023/05/19,00:00,0.151,0.137,0.218,0.211,0.213,0.122,0.079,south,6.0,No
2023/05/19,00:10,0.150,0.136,0.219,0.210,0.215,0.122,0.078,south,5.1,No
2023/05/19,00:20,0.151,0.137,0.218,0.211,0.214,0.121,0.078,south,4.5,No
2023/05/19,00:30,0.150,0.136,0.219,0.210,0.215,0.121,0.079,south,3.9,No
2023/05/19,00:40,0.152,0.137,0.218,0.212,0.214,0.121,0.079,south,3.0,No
2023/05/19,00:50,0.150,0.137,0.218,0.210,0.213,0.121,0.078,south,2.3,No
2023/05/19,01:00,0.152,0.137,0.219,0.211,0.216,0.122,0.078,south,2.6,No
2023/05/19,01:10,0.152,0.137,0.219,0.210,0.212,0.121,0.078,south,2.2,No
2023/05/19,01:20,0.151,0.137,0.218,0.211,0.215,0.121,0.079,south,3.1,No
2023/05/19,01:30,0.152,0.137,0.219,0.209,0.213,0.121,0.079,southwest,1.8,No
2023/05/19,01:40,0.152,0.138,0.219,0.212,0.215,0.122,0.079,northwest,2.4,No
2023/05/19,01:50,0.152,0.137,0.220,0.210,0.213,0.121,0.079,northwest,2.9,No
2023/05/19,02:00,0.152,0.138,0.220,0.212,0.217,0.122,0.079,north-northwest,2.6,No
2023/05/19,02:10,0.152,0.137,0.220,0.210,0.214,0.122,0.080,northwest,4.7,No
2023/05/19,02:20,0.152,0.136,0.218,0.212,0.214,0.123,0.078,northwest,7.2,No
2023/05/19,02:30,0.152,0.135,0.217,0.211,0.214,0.120,0.079,north-northwest,7.8,No
2023/05/19,02:40,0.151,0.135,0.218,0.210,0.214,0.121,0.078,north-northwest,8.5,No
2023/05/19,02:50,0.151,0.135,0.217,0.211,0.214,0.121,0.078,northwest,6.2,No
2023/05/19,03:00,0.150,0.135,0.218,0.209,0.212,0.121,0.078,northwest,5.2,No
2023/05/19,03:10,0.149,0.135,0.218,0.210,0.215,0.121,0.078,north-northwest,4.4,No
2023/05/19,03:20,0.152,0.136,0.218,0.209,0.212,0.122,0.078,north-northwest,5.1,No
2023/05/19,03:30,0.150,0.135,0.218,0.211,0.213,0.122,0.078,north-northwest,4.0,No
2023/05/19,03:40,0.151,0.136,0.216,0.209,0.214,0.121,0.078,north-northwest,2.9,No
2023/05/19,03:50,0.151,0.135,0.219,0.210,0.213,0.121,0.078,-,CALM,No
2023/05/19,04:00,0.151,0.136,0.218,0.210,0.214,0.120,0.079,north,0.6,No
2023/05/19,04:10,0.151,0.135,0.219,0.212,0.213,0.122,0.079,-,CALM,No
2023/05/19,04:20,0.150,0.136,0.218,0.210,0.216,0.121,0.078,southeast,1.2,No
2023/05/19,04:30,0.152,0.136,0.219,0.211,0.214,0.122,0.078,south-southeast,0.7,No
2023/05/19,04:40,0.151,0.137,0.217,0.208,0.215,0.121,0.078,south,0.7,No
2023/05/19,04:50,0.151,0.136,0.220,0.210,0.214,0.120,0.078,southwest,0.7,No
2023/05/19,05:00,0.151,0.136,0.216,0.210,0.213,0.121,0.078,southwest,1.1,No
2023/05/19,05:10,0.151,0.135,0.218,0.210,0.216,0.121,0.078,west-southwest,0.8,No
2023/05/19,05:20,0.151,0.136,0.217,0.210,0.214,0.121,0.078,west,1.0,No
2023/05/19,05:30,0.150,0.135,0.218,0.209,0.215,0.121,0.078,-,CALM,No
2023/05/19,05:40,0.151,0.136,0.217,0.211,0.213,0.121,0.078,-,CALM,No
2023/05/19,05:50,0.150,0.136,0.219,0.208,0.215,0.121,0.078,-,CALM,No
2023/05/19,06:00,0.152,0.137,0.216,0.212,0.215,0.122,0.079,southeast,2.9,No
2023/05/19,06:10,0.150,0.137,0.219,0.210,0.214,0.121,0.078,south,2.4,No
2023/05/19,06:20,0.152,0.136,0.219,0.211,0.215,0.122,0.078,south,3.0,No
2023/05/19,06:30,0.152,0.136,0.219,0.210,0.214,0.121,0.078,southwest,2.4,No
2023/05/19,06:40,0.150,0.136,0.218,0.209,0.213,0.121,0.078,south-southwest,2.8,No
2023/05/19,06:50,0.151,0.136,0.217,0.211,0.214,0.121,0.079,south,4.5,No
2023/05/19,07:00,0.150,0.136,0.218,0.210,0.213,0.120,0.078,south,3.9,No
2023/05/19,07:10,0.152,0.137,0.216,0.211,0.214,0.121,0.078,south-southwest,3.7,No
2023/05/19,07:20,0.152,0.135,0.218,0.209,0.215,0.121,0.078,south,3.7,No
2023/05/19,07:30,0.150,0.136,0.217,0.209,0.212,0.120,0.078,south-southwest,3.3,No
2023/05/19,07:40,0.152,0.136,0.218,0.209,0.215,0.122,0.078,south-southwest,3.1,No
2023/05/19,07:50,0.151,0.135,0.218,0.209,0.214,0.120,0.078,southwest,4.3,No
2023/05/19,08:00,0.150,0.137,0.217,0.209,0.213,0.121,0.078,west-southwest,6.6,No
2023/05/19,08:10,0.151,0.136,0.217,0.211,0.211,0.121,0.078,west-southwest,7.2,No
2023/05/19,08:20,0.152,0.135,0.220,0.209,0.214,0.121,0.078,west,5.3,Yes
2023/05/19,08:30,0.149,0.135,0.217,0.208,0.213,0.120,0.078,west,4.0,Yes
2023/05/19,08:40,0.151,0.137,0.214,0.210,0.212,0.121,0.076,northwest,2.5,Yes
2023/05/19,08:50,0.152,0.135,0.218,0.211,0.212,0.121,0.079,north,6.9,Yes
2023/05/19,09:00,0.151,0.134,0.219,0.210,0.214,0.121,0.079,north,11.1,No
2023/05/19,09:10,0.152,0.136,0.217,0.208,0.215,0.122,0.077,north,7.2,No
2023/05/19,09:20,0.151,0.135,0.217,0.211,0.213,0.121,0.077,north-northwest,7.2,No
2023/05/19,09:30,0.150,0.134,0.218,0.210,0.213,0.120,0.078,north-northwest,6.5,No
2023/05/19,09:40,0.152,0.136,0.217,0.208,0.215,0.121,0.077,north-northwest,5.1,No
2023/05/19,09:50,0.151,0.136,0.215,0.210,0.214,0.121,0.077,north-northwest,6.0,No
2023/05/19,10:00,0.149,0.135,0.215,0.210,0.212,0.121,0.076,north,4.4,No
2023/05/19,10:10,0.151,0.133,0.219,0.209,0.211,0.119,0.078,northeast,2.7,No
2023/05/19,10:20,0.150,0.136,0.218,0.207,0.214,0.120,0.078,northeast,5.4,No
2023/05/19,10:30,0.149,0.135,0.217,0.207,0.214,0.120,0.076,northeast,4.5,No
2023/05/19,10:40,0.151,0.133,0.215,0.210,0.211,0.119,0.076,northeast,3.1,No
2023/05/19,10:50,0.152,0.136,0.216,0.210,0.211,0.120,0.078,northeast,3.1,No
2023/05/19,11:00,0.148,0.134,0.217,0.209,0.214,0.121,0.077,north-northeast,2.0,No
2023/05/19,11:10,0.151,0.134,0.217,0.206,0.214,0.120,0.077,north-northeast,2.7,No
2023/05/19,11:20,0.151,0.135,0.214,0.209,0.211,0.119,0.077,north,3.9,No
2023/05/19,11:30,0.150,0.136,0.218,0.210,0.211,0.120,0.076,north-northwest,3.0,No
2023/05/19,11:40,0.151,0.135,0.218,0.208,0.215,0.121,0.076,north,3.9,No
2023/05/19,11:50,0.151,0.135,0.215,0.207,0.212,0.119,0.077,north,4.3,No
2023/05/19,12:00,0.149,0.135,0.215,0.210,0.213,0.120,0.077,north,4.0,No
2023/05/19,12:10,0.151,0.134,0.217,0.209,0.215,0.120,0.076,north-northwest,3.3,No
2023/05/19,12:20,0.149,0.136,0.217,0.207,0.214,0.120,0.077,north-northwest,3.2,No
2023/05/19,12:30,0.149,0.135,0.215,0.210,0.211,0.119,0.077,north,2.1,No
2023/05/19,12:40,0.151,0.134,0.217,0.209,0.213,0.120,0.076,northeast,1.4,No
2023/05/19,12:50,0.150,0.134,0.220,0.207,0.213,0.120,0.077,north,1.8,No
2023/05/19,13:00,0.150,0.136,0.217,0.207,0.213,0.120,0.077,north-northwest,2.6,No
2023/05/19,13:10,0.151,0.135,0.215,0.209,0.211,0.120,0.077,north,3.3,No
2023/05/19,13:20,0.151,0.134,0.215,0.209,0.214,0.121,0.077,northwest,3.3,No
2023/05/19,13:30,0.149,0.135,0.218,0.208,0.214,0.120,0.076,north-northwest,3.8,No
2023/05/19,13:40,0.152,0.135,0.217,0.209,0.212,0.120,0.076,north-northwest,2.6,No
2023/05/19,13:50,0.150,0.134,0.216,0.210,0.212,0.120,0.077,north,2.7,No
2023/05/19,14:00,0.149,0.137,0.219,0.208,0.215,0.120,0.077,north,2.6,No
2023/05/19,14:10,0.151,0.134,0.217,0.209,0.213,0.121,0.077,north,3.3,Yes
2023/05/19,14:20,0.149,0.136,0.217,0.208,0.213,0.121,0.077,north,2.6,Yes
2023/05/19,14:30,0.151,0.135,0.218,0.208,0.216,0.120,0.078,north,3.0,Yes
2023/05/19,14:40,0.151,0.136,0.217,0.212,0.213,0.122,0.078,north-northeast,2.2,Yes
2023/05/19,14:50,0.151,0.136,0.220,0.208,0.215,0.121,0.078,north,2.9,Yes
2023/05/19,15:00,0.153,0.137,0.218,0.211,0.213,0.122,0.079,north-northwest,2.4,Yes
2023/05/19,15:10,0.152,0.138,0.221,0.210,0.216,0.122,0.079,north-northwest,2.9,Yes
2023/05/19,15:20,0.152,0.138,0.219,0.211,0.215,0.123,0.080,north-northwest,3.6,Yes
2023/05/19,15:30,0.153,0.139,0.221,0.211,0.215,0.123,0.080,northwest,4.2,Yes
2023/05/19,15:40,0.154,0.138,0.220,0.212,0.215,0.124,0.082,north-northwest,3.4,Yes
2023/05/19,15:50,0.152,0.139,0.219,0.211,0.214,0.123,0.081,north-northwest,5.8,Yes
2023/05/19,16:00,0.154,0.137,0.219,0.210,0.215,0.124,0.081,northeast,5.6,Yes
2023/05/19,16:10,0.153,0.138,0.217,0.209,0.212,0.124,0.080,east-northeast,13.3,Yes
2023/05/19,16:20,0.154,0.137,0.217,0.208,0.214,0.123,0.081,northeast,7.8,Yes
2023/05/19,16:30,0.152,0.138,0.217,0.209,0.213,0.122,0.080,north-northwest,4.4,Yes
2023/05/19,16:40,0.154,0.136,0.214,0.205,0.213,0.123,0.081,north-northeast,6.4,Yes
2023/05/19,16:50,0.151,0.137,0.216,0.207,0.210,0.122,0.080,north,3.7,Yes
2023/05/19,17:00,0.152,0.136,0.214,0.205,0.212,0.122,0.081,north-northeast,6.5,Yes
2023/05/19,17:10,0.151,0.137,0.214,0.205,0.210,0.122,0.080,north,2.7,Yes
2023/05/19,17:20,0.151,0.136,0.212,0.204,0.212,0.122,0.081,north-northeast,2.0,Yes
2023/05/19,17:30,0.150,0.136,0.213,0.205,0.209,0.121,0.080,north,4.0,Yes
2023/05/19,17:40,0.151,0.135,0.212,0.204,0.213,0.121,0.080,north-northeast,2.8,Yes
2023/05/19,17:50,0.149,0.134,0.213,0.205,0.211,0.121,0.080,north-northeast,1.9,Yes
2023/05/19,18:00,0.151,0.135,0.210,0.204,0.212,0.121,0.080,north-northeast,2.6,Yes
2023/05/19,18:10,0.148,0.135,0.213,0.205,0.210,0.121,0.080,north-northeast,3.4,Yes
2023/05/19,18:20,0.151,0.135,0.211,0.204,0.212,0.121,0.081,east-northeast,0.7,Yes
2023/05/19,18:30,0.150,0.135,0.213,0.204,0.211,0.121,0.081,north-northeast,2.7,Yes
2023/05/19,18:40,0.151,0.136,0.211,0.203,0.213,0.122,0.081,north-northwest,3.3,Yes
2023/05/19,18:50,0.150,0.135,0.211,0.204,0.211,0.122,0.080,north-northwest,3.0,Yes
2023/05/19,19:00,0.149,0.136,0.212,0.204,0.212,0.122,0.081,north-northwest,3.6,Yes
2023/05/19,19:10,0.149,0.134,0.210,0.204,0.211,0.121,0.081,north-northwest,4.5,Yes
2023/05/19,19:20,0.151,0.136,0.211,0.203,0.211,0.121,0.081,north-northwest,4.7,Yes
2023/05/19,19:30,0.149,0.134,0.210,0.202,0.210,0.121,0.081,north-northwest,5.1,Yes
2023/05/19,19:40,0.149,0.134,0.210,0.202,0.212,0.119,0.080,north-northwest,4.6,Yes
2023/05/19,19:50,0.148,0.134,0.207,0.201,0.210,0.119,0.079,northwest,4.5,Yes
2023/05/19,20:00,0.147,0.133,0.209,0.202,0.209,0.119,0.078,northwest,4.4,Yes
2023/05/19,20:10,0.147,0.133,0.208,0.200,0.209,0.118,0.078,north-northwest,4.2,Yes
2023/05/19,20:20,0.147,0.133,0.208,0.201,0.210,0.118,0.078,north-northwest,4.4,Yes
2023/05/19,20:30,0.147,0.133,0.208,0.200,0.209,0.118,0.079,north-northwest,5.1,Yes
2023/05/19,20:40,0.147,0.132,0.207,0.201,0.210,0.119,0.077,northwest,5.7,Yes
2023/05/19,20:50,0.147,0.132,0.207,0.199,0.209,0.118,0.079,northwest,5.2,Yes
2023/05/19,21:00,0.147,0.133,0.206,0.200,0.208,0.119,0.077,north-northwest,5.2,Yes
2023/05/19,21:10,0.147,0.133,0.207,0.199,0.208,0.118,0.079,north-northwest,5.0,Yes
2023/05/19,21:20,0.148,0.133,0.206,0.200,0.209,0.118,0.078,north-northwest,3.6,Yes
2023/05/19,21:30,0.148,0.134,0.208,0.199,0.208,0.119,0.078,northwest,3.6,Yes
2023/05/19,21:40,0.148,0.133,0.206,0.199,0.208,0.118,0.077,west-northwest,1.9,Yes
2023/05/19,21:50,0.147,0.132,0.207,0.197,0.208,0.117,0.078,northwest,2.2,Yes
2023/05/19,22:00,0.147,0.133,0.206,0.199,0.209,0.116,0.077,northwest,4.1,Yes
2023/05/19,22:10,0.147,0.132,0.207,0.197,0.207,0.117,0.077,northwest,5.8,Yes
2023/05/19,22:20,0.147,0.133,0.208,0.199,0.208,0.116,0.077,northwest,5.2,No
2023/05/19,22:30,0.146,0.132,0.205,0.197,0.206,0.117,0.076,northwest,5.3,Yes
2023/05/19,22:40,0.146,0.132,0.207,0.199,0.208,0.115,0.076,northwest,4.8,Yes
2023/05/19,22:50,0.145,0.131,0.205,0.199,0.206,0.115,0.076,northwest,4.2,Yes
2023/05/19,23:00,0.146,0.132,0.207,0.198,0.209,0.115,0.076,northwest,3.1,Yes
2023/05/19,23:10,0.145,0.131,0.205,0.197,0.206,0.115,0.076,northwest,2.3,Yes
2023/05/19,23:20,0.145,0.132,0.207,0.199,0.208,0.116,0.075,northwest,2.2,No
2023/05/19,23:30,0.145,0.130,0.205,0.197,0.206,0.115,0.076,north,1.9,No
2023/05/19,23:40,0.145,0.130,0.207,0.197,0.208,0.115,0.075,north-northwest,2.0,Yes
2023/05/19,23:50,0.143,0.130,0.204,0.196,0.205,0.115,0.076,north-northwest,2.0,No
